Home > Weather > Rockhampton > Past weeks

Flag for Australia Past Weather in Rockhampton, Queensland, Australia — Yesterday and Last 2 Weeks

Now
63 °F

Passing clouds.


Feels Like: 63 °F
Forecast: 53 / 68 °F
Wind: 1 mph from South

Location: Rockhampton Airport

Current Time: Aug 25, 2016 at 11:29:43 PM

Latest Report: Aug 25, 2016 at 11:00 PM


Visibility: N/A

Pressure: 30.01 "Hg

Humidity: 64%

Dew Point: 50 °F

Location of RockhamptonLocation

Past Weather in Rockhampton — Graph

°F

Rockhampton Temperature Yesterday

Maximum temperature yesterday: 81 °F (at 12:00 PM)
Minimum temperature yesterday: 63 °F (at 5:00 AM)
Average temperature yesterday: 70 °F

High & Low Weather Summary for the Past Weeks

 TemperatureHumidityPressure
High81 °F (Aug 24, 12:00 PM)100% (Aug 10, 11:30 PM)30.30 "Hg (Aug 10, 11:30 PM)
Low52 °F (Aug 14, 6:00 AM)31% (Aug 14, 1:00 PM)29.77 "Hg (Aug 24, 2:30 AM)
Average67 °F71%30.07 "Hg
* Reported Aug 10 10:00 PM — Aug 25 10:00 PM, Rockhampton, Weather by CustomWeather, © 2016

Note: Actual official high and low records may vary slightly from our data, if they occured in-between our weather recording intervals... More about our weather records

Advertising

Rockhampton Weather History for the Previous 24 Hours

Scroll right to see more
 ConditionsComfort  
Time TempWeatherWind HumidityBarometerVisibility
10:00 PM
Thu, Aug 25
63 °FPassing clouds.2 mph64%29.98 "HgN/A
9:30 PM64 °FPassing clouds.5 mph56%29.98 "HgN/A
9:00 PM64 °FPassing clouds.6 mph60%29.98 "HgN/A
8:30 PM64 °FPassing clouds.6 mph64%29.98 "HgN/A
8:00 PM64 °FClear.5 mph64%29.95 "HgN/A
7:00 PM66 °FClear.6 mph60%29.95 "HgN/A
6:30 PM66 °FClear.No wind64%29.92 "HgN/A
6:00 PM68 °FClear.3 mph56%29.92 "HgN/A
5:30 PM70 °FClear.6 mph53%29.92 "HgN/A
5:00 PM72 °FPassing clouds.8 mph47%29.89 "HgN/A
4:30 PM72 °FPartly sunny.6 mph47%29.89 "HgN/A
4:00 PM72 °FPartly sunny.9 mph47%29.89 "HgN/A
3:30 PM72 °FPartly sunny.9 mph47%29.86 "HgN/A
3:00 PM72 °FPartly sunny.3 mph50%29.86 "HgN/A
2:30 PM72 °FScattered clouds.7 mph47%29.89 "HgN/A
2:00 PM72 °FScattered clouds.10 mph47%29.89 "HgN/A
1:30 PM72 °FScattered clouds.9 mph47%29.89 "HgN/A
1:00 PM70 °FPartly sunny.8 mph50%29.89 "HgN/A
12:30 PM70 °FCloudy.9 mph50%29.89 "HgN/A
12:00 PM70 °FPartly sunny.10 mph53%29.92 "HgN/A
11:30 AM66 °FPartly sunny.6 mph64%29.92 "HgN/A
11:00 AM66 °FPartly sunny.8 mph64%29.95 "HgN/A
10:30 AM66 °FPartly sunny.8 mph64%29.95 "HgN/A
10:00 AM66 °FPartly sunny.6 mph73%29.95 "HgN/A
9:30 AM64 °FPartly sunny.6 mph78%29.95 "HgN/A
9:00 AM63 °FPartly sunny.8 mph83%29.95 "HgN/A
8:30 AM63 °FPartly sunny.8 mph83%29.95 "HgN/A
8:00 AM61 °FScattered showers. Partly sunny.8 mph94%29.95 "HgN/A
7:30 AM63 °FLight rain. More clouds than sun.6 mph100%29.92 "HgN/A
7:00 AM63 °FMostly cloudy.6 mph100%29.92 "HgN/A
6:30 AM63 °FMore clouds than sun.7 mph100%29.89 "HgN/A
6:00 AM63 °FMore clouds than sun.No wind94%29.89 "HgN/A
5:54 AM63 °FMore clouds than sun.No wind94%29.89 "HgN/A
5:00 AM63 °FOvercast.5 mph94%29.86 "HgN/A
4:30 AM63 °FOvercast.7 mph94%29.86 "HgN/A
4:00 AM63 °FOvercast.2 mph94%29.83 "HgN/A
3:00 AM63 °FMostly cloudy.7 mph94%29.86 "HgN/A
2:30 AM63 °FMostly cloudy.6 mph94%29.86 "HgN/A
2:00 AM63 °FPassing clouds.5 mph94%29.89 "HgN/A
1:00 AM63 °FMostly cloudy.9 mph94%29.89 "HgN/A
12:30 AM63 °FMostly cloudy.9 mph94%29.89 "HgN/A
12:00 AM63 °FOvercast.7 mph94%29.89 "HgN/A
11:00 PM
Wed, Aug 24
63 °FOvercast.8 mph100%29.89 "HgN/A
Weather by CustomWeather, © 2016

See weather overviewHow to use our weather pages